"Pseudo-MPEC" for P22pfoj

Created 2026 Aug 16 4:35:26 UT using Find_Orb

Click here for an explanation of pseudo-MPECs

 
 Astrometry: 
     P22pfoj*0C2026 08 12.32181721 09 26.766+21 09 01.98   ~8C9o 21.42wXNEOCPF52
     P22pfoj 0C2026 08 12.33388221 09 26.227+21 09 06.16   ~8C9o 21.42wXNEOCPF52
     P22pfoj 0C2026 08 12.34598421 09 25.696+21 09 10.22   ~8C9o 21.52wXNEOCPF52
     P22pfoj 0C2026 08 12.35805721 09 25.159+21 09 14.32   ~8C9o 21.40wXNEOCPF52
     P22pfoj 0C2026 08 12.46870421 09 20.183+21 09 50.87   ~8CL5 21.24GVNEOCPF52
     P22pfoj 0C2026 08 12.46933721 09 20.163+21 09 51.07   ~8CL5 21.27GVNEOCPF52
     P22pfoj 1C2026 08 13.93812021 08 20.047+21 17 15.20   ~8E75 21.1 GXNEOCP033
     P22pfoj 1C2026 08 13.94079021 08 19.936+21 17 16.00   ~8E75 21.1 GXNEOCP033
     P22pfoj 1C2026 08 13.94344021 08 19.838+21 17 16.80   ~8E75 21.0 GXNEOCP033
     P22pfoj 1C2026 08 13.94608021 08 19.716+21 17 17.60   ~8E75 21.2 GXNEOCP033
     P22pfoj KC2026 08 14.17698021 08 10.37 +21 18 23.7    ~8E4o 21.1 GVNEOCPH21
     P22pfoj KC2026 08 14.17986921 08 10.24 +21 18 24.5    ~8E4o 21.1 GVNEOCPH21
     P22pfoj KC2026 08 14.18314321 08 10.10 +21 18 25.4    ~8E4o 21.1 GVNEOCPH21

Station data:
(033) Karl Schwarzschild Observatory, Tautenburg  (N50.980139 E11.711240)
   Germany.  Observer B. Stecklum. 1.34-m f/3 Schmidt + CCD.
(F52) Pan-STARRS 2, Haleakala  (N20.707382 W156.255910)  US/Hawaii.
   Observers J. Herman, T. Lowe, P. Minguez, A. Schultz, I. Smith. Measurers
   K. Chambers, T. de Boer, J. Fairlamb, H. Gao, M. Huber, C.-C. Lin, E.
   Magnier, Y. Ramanjooloo, R. Wainscoat, R. Weryk. 1.8-m Ritchey-Chrétien +
   CCD.
(H21) Astronomical Research Observatory, Westfield  (N39.483054 W87.968270)
   US/Illinois.  Observer R. Holmes. Measurers S. Foglia, L. Buzzi, T.
   Linder, R. Holmes. 0.40-m f/5.32 astrograph + CCD.

Orbital elements:  P22pfoj
   Perihelion 2026 Oct 25.139753 +/- 52.6 TT =  3:21:14.6 (JD 2461338.639753)
Epoch 2026 Aug 14.0 TT = JDT 2461266.5   Earth MOID: 0.8237      AutoNEOCP
M 347.667480997 +/- 7               (J2000 ecliptic)
n   0.170953163 +/- 0.0313          Peri.  115.583321 +/- 41
a   3.215273753 +/- 0.393           Node   244.178854 +/- 13
e   0.45635351 +/- 0.0829           Incl.   17.545373 +/- 1.5
P   5.76537                H 19.20  G  0.15   U 10.4  SR
q 1.747972267 +/- 0.19    Q 4.682575239 +/- 0.89
From 13 observations 2026 Aug. 12-14 (44.7 hr); mean residual 0".09
Residuals in arcseconds: 
260812 F52  .01+  .02+    260812 F52  .04+  .03-    260814 H21  .12-  .01-    
260812 F52  .06-  .06+    260813 033  .05-  .03-    260814 H21  .15-  .02-    
260812 F52  .03+  .01-    260813 033  .03+  .01+    260814 H21  .09-  .04-    
260812 F52  .05+  .01-    260813 033  .27+  .05+    
260812 F52  .08-  .03-    260813 033  .18+  .10+    

Ephemerides (geocentric):
Date (UTC) HH   RA             Dec           delta  r     elong  mag " sig PA
---- --------  ------------   ------------  ------ ------ -----  --- --------
2026 08 16 05  21 06 47.254   +21 26 46.76  .93477 1.8507 143.7 21.4 15.5  78
2026 08 16 06  21 06 45.563   +21 26 55.73  .93466 1.8506 143.7 21.4 15.9  78
2026 08 16 07  21 06 43.873   +21 27 04.64  .93455 1.8505 143.7 21.4 16.4  78
2026 08 16 08  21 06 42.183   +21 27 13.50  .93443 1.8504 143.7 21.4 16.9  78
2026 08 16 09  21 06 40.493   +21 27 22.31  .93432 1.8502 143.7 21.4 17.3  78
2026 08 16 10  21 06 38.804   +21 27 31.06  .93421 1.8501 143.7 21.4 17.8  78
2026 08 16 11  21 06 37.116   +21 27 39.77  .93410 1.8500 143.7 21.4 18.3  78
2026 08 16 12  21 06 35.428   +21 27 48.42  .93398 1.8499 143.7 21.4 18.8  78
2026 08 16 13  21 06 33.741   +21 27 57.02  .93387 1.8498 143.7 21.4 19.3  78
2026 08 16 14  21 06 32.054   +21 28 05.57  .93376 1.8497 143.7 21.4 19.8  78
2026 08 16 15  21 06 30.368   +21 28 14.06  .93365 1.8495 143.7 21.4 20.3  78
2026 08 16 16  21 06 28.683   +21 28 22.51  .93354 1.8494 143.7 21.3 20.9  78
2026 08 16 17  21 06 26.998   +21 28 30.90  .93343 1.8493 143.7 21.3 21.4  79
2026 08 16 18  21 06 25.314   +21 28 39.24  .93332 1.8492 143.7 21.3 21.9  79
2026 08 16 19  21 06 23.630   +21 28 47.53  .93321 1.8491 143.7 21.3 22.5  79
2026 08 16 20  21 06 21.947   +21 28 55.76  .93310 1.8490 143.7 21.3 23.0  79
2026 08 16 21  21 06 20.265   +21 29 03.95  .93299 1.8488 143.7 21.3 23.6  79
2026 08 16 22  21 06 18.583   +21 29 12.08  .93288 1.8487 143.7 21.3 24.1  79
2026 08 16 23  21 06 16.902   +21 29 20.16  .93277 1.8486 143.7 21.3 24.7  79
2026 08 17 00  21 06 15.221   +21 29 28.19  .93266 1.8485 143.7 21.3 25.3  79
2026 08 17 01  21 06 13.542   +21 29 36.16  .93255 1.8484 143.7 21.3 25.9  79
2026 08 17 02  21 06 11.863   +21 29 44.09  .93244 1.8483 143.7 21.3 26.4  79
2026 08 17 03  21 06 10.184   +21 29 51.96  .93234 1.8482 143.7 21.3 27.0  79
2026 08 17 04  21 06 08.507   +21 29 59.78  .93223 1.8480 143.7 21.3 27.6  79
2026 08 17 05  21 06 06.829   +21 30 07.55  .93212 1.8479 143.7 21.3 28.2  79
2026 08 17 06  21 06 05.153   +21 30 15.27  .93201 1.8478 143.7 21.3 28.8  80
2026 08 17 07  21 06 03.478   +21 30 22.93  .93191 1.8477 143.7 21.3 29.5  80
2026 08 17 08  21 06 01.803   +21 30 30.54  .93180 1.8476 143.7 21.3 30.1  80
2026 08 17 09  21 06 00.128   +21 30 38.10  .93169 1.8475 143.7 21.3 30.7  80
2026 08 17 10  21 05 58.455   +21 30 45.61  .93159 1.8473 143.7 21.3 31.3  80
2026 08 17 11  21 05 56.782   +21 30 53.07  .93148 1.8472 143.7 21.3 32.0  80
2026 08 17 12  21 05 55.110   +21 31 00.47  .93138 1.8471 143.7 21.3 32.6  80
2026 08 17 13  21 05 53.439   +21 31 07.83  .93127 1.8470 143.7 21.3 33.3  80
2026 08 17 14  21 05 51.768   +21 31 15.13  .93117 1.8469 143.7 21.3 33.9  80
2026 08 17 15  21 05 50.099   +21 31 22.37  .93106 1.8468 143.7 21.3 34.6  80
2026 08 17 16  21 05 48.430   +21 31 29.57  .93096 1.8467 143.7 21.3 35.3  80
2026 08 17 17  21 05 46.761   +21 31 36.72  .93086 1.8465 143.7 21.3 35.9  80
2026 08 17 18  21 05 45.094   +21 31 43.81  .93075 1.8464 143.7 21.3 36.6  80
2026 08 17 19  21 05 43.427   +21 31 50.85  .93065 1.8463 143.7 21.3 37.3  81
2026 08 17 20  21 05 41.761   +21 31 57.84  .93054 1.8462 143.7 21.3 38.0  81
2026 08 17 21  21 05 40.096   +21 32 04.78  .93044 1.8461 143.7 21.3 38.7  81
2026 08 17 22  21 05 38.432   +21 32 11.66  .93034 1.8460 143.7 21.3 39.4  81
2026 08 17 23  21 05 36.769   +21 32 18.50  .93024 1.8459 143.7 21.3 40.1  81
2026 08 18 00  21 05 35.106   +21 32 25.28  .93013 1.8457 143.7 21.3 40.8  81
2026 08 18 01  21 05 33.444   +21 32 32.01  .93003 1.8456 143.7 21.3 41.5  81
2026 08 18 02  21 05 31.783   +21 32 38.68  .92993 1.8455 143.7 21.3 42.3  81
2026 08 18 03  21 05 30.123   +21 32 45.31  .92983 1.8454 143.6 21.3 43.0  81
2026 08 18 04  21 05 28.464   +21 32 51.88  .92973 1.8453 143.6 21.3 43.7  81